[[{"header":{"parameterUnit":"m.s-1","parameterCategory":1,"la1":30.2992,"la2":30.254,"lo1":-89.0895,"lo2":-89.0443,"dy":0.0025,"dx":0.0025,"nx":19,"ny":19,"refTime":"2026-05-23T03:00:00:Z","depth":0,"parameterNumber":2,"parameterNumberName":"U-component_of_WINDS"},"data":[0,0,0,-3.9366,-3.9371,-3.9608,-3.9609,-3.9908,-3.9911,0,0,0,0,0,0,0,0,0,0,0,-3.9294,-3.9295,-3.9366,-3.9372,-3.9608,-3.9609,-3.9908,-3.9911,0,0,0,0,0,0,0,0,0,0,0,-3.9293,-3.9295,-3.9297,-3.9373,-3.9608,-3.9609,-3.9907,-3.973,0,0,0,0,0,0,0,0,0,0,-3.9501,-3.9431,-3.9294,-3.9298,-3.9374,-3.9608,-3.9609,-3.9721,-3.9741,-3.9799,0,-3.985,0,-3.9885,-3.9931,-3.9932,0,0,0,-3.9374,-3.9415,-3.9481,-3.9298,-3.9376,-3.9607,-3.9502,-3.9732,-3.9754,-3.9825,-3.9855,-3.9866,-3.989,-3.9932,-3.9934,-4.0263,-4.0264,0,0,-3.936,-3.9335,-3.9466,-3.9495,-3.9458,-3.9494,-3.9509,-3.9746,-3.9776,-3.9856,-3.9873,-3.9895,-3.9934,-3.9937,-4.0261,-4.0263,0,0,0,-3.9322,-3.9326,-3.9386,-3.9483,-3.9525,-3.9501,-3.9518,-3.9766,-3.9788,-3.9876,-3.9899,-3.9936,-3.994,-4.026,-4.0262,-4.0307,0,0,0,-3.9314,-3.9303,-3.938,-3.9367,-3.9521,-3.9649,-3.9533,-3.9771,-3.9799,-3.9897,-3.9936,-3.9943,-4.0258,-4.0261,-4.0302,-4.0332,0,0,0,-3.9279,-3.9299,-3.9332,-3.9365,-3.9466,-3.9645,-3.9681,-3.9778,-3.9813,-3.9932,-3.9943,-4.0257,-4.026,-4.0298,-4.0325,-4.041,0,0,0,-3.9234,-3.937,-3.9333,-3.9493,-3.9464,-3.9672,-3.968,-3.9836,-3.9944,-3.9938,-4.0258,-4.0262,-4.0297,-4.0321,-4.0405,-4.0474,-4.0501,0,0,-3.9391,-3.9388,-3.9485,-3.9458,-3.9666,-3.9638,-3.9853,-3.9976,-4.0012,-4.0177,-4.0185,-4.0304,-4.0325,-4.0409,-4.0665,-4.0686,0,0,0,-3.9525,-3.9594,-3.9655,-3.9756,-3.9853,-3.9939,-4.0032,-4.0078,-4.0219,-4.0091,-4.0359,-4.0372,-4.0422,-4.0457,-4.0475,-4.0519,-4.0277,-4.0277,-4.0276,-3.971,-3.9747,-3.9908,-3.9974,-4.0072,-4.0167,-4.025,-4.0328,-4.0338,-4.04,-4.0449,-4.06,-4.0639,-4.0653,-4.0698,-4.049,-4.0491,-4.0491,-4.0491,-3.9941,-4.0043,-4.0053,-4.0212,-4.0251,-4.0386,-4.0483,-4.0485,-4.0616,-4.0566,-4.0612,-4.0553,-4.0675,-4.0716,-4.0495,-4.0494,-4.0493,-4.0493,-4.0493,-4.0064,-4.0119,-4.0173,-4.0322,-4.0433,-4.0496,-4.0621,-4.0653,-4.0684,-4.0729,-4.0783,-4.0782,-4.0784,-4.0753,-4.0754,-4.0754,-4.0755,-4.0755,-4.0755,-4.0169,-4.0228,-4.0329,-4.0444,-4.0512,-4.0607,-4.0704,-4.0772,-4.0856,-4.087,-4.087,-4.0872,-4.068,-4.063,-4.0764,-4.0762,-4.0761,-4.076,-4.076,-4.0387,-4.0343,-4.0498,-4.0567,-4.0704,-4.0811,-4.0851,-4.0988,-4.1049,-4.111,-4.1103,-4.0957,-4.0956,-4.0942,-4.09,-4.1096,-4.1096,-4.1096,-4.1096,-4.0489,-4.0492,-4.0658,-4.0765,-4.0875,-4.0926,-4.11,-4.1177,-4.1249,-4.129,-4.1267,-4.1215,-4.1199,-4.1208,-4.1188,-4.1149,-4.1404,-4.1404,-4.1405,-4.0624,-4.0639,-4.0781,-4.085,-4.0959,-4.1052,-4.1217,-4.134,-4.1414,-4.1418,-4.1321,-4.1308,-4.1226,-4.1197,-4.1196,-4.1165,-4.1095,0,0]},{"header":{"parameterUnit":"m.s-1","parameterCategory":1,"la1":30.2992,"la2":30.254,"lo1":-89.0895,"lo2":-89.0443,"dy":0.0025,"dx":0.0025,"nx":19,"ny":19,"refTime":"2026-05-23T03:00:00:Z","depth":0,"parameterNumber":3,"parameterNumberName":"V-component_of_WINDS"},"data":[0,0,0,4.1875,4.1879,4.2055,4.2056,4.2271,4.2273,0,0,0,0,0,0,0,0,0,0,0,4.182,4.1822,4.1875,4.1879,4.2055,4.2056,4.2271,4.2273,0,0,0,0,0,0,0,0,0,0,0,4.1819,4.1821,4.1823,4.188,4.2055,4.2056,4.227,4.214,0,0,0,0,0,0,0,0,0,0,4.197,4.1918,4.1821,4.1823,4.1881,4.2054,4.2056,4.2134,4.2148,4.2188,0,4.2225,0,4.2253,4.2287,4.2288,0,0,0,4.188,4.1906,4.1956,4.1823,4.1882,4.2054,4.1976,4.2142,4.2158,4.2207,4.2229,4.2237,4.2256,4.2288,4.2289,4.252,4.252,0,0,4.1871,4.185,4.1945,4.1967,4.1942,4.197,4.1981,4.2152,4.2173,4.2229,4.2242,4.226,4.229,4.2291,4.2519,4.252,0,0,0,4.1842,4.1843,4.1889,4.1958,4.199,4.1975,4.1988,4.2165,4.2182,4.2244,4.2262,4.2291,4.2293,4.2518,4.2519,4.2548,0,0,0,4.1836,4.1826,4.1885,4.1874,4.1987,4.2081,4.1998,4.217,4.219,4.2261,4.2291,4.2295,4.2517,4.2518,4.2545,4.2564,0,0,0,4.1809,4.1823,4.1848,4.1872,4.1947,4.2079,4.2105,4.2175,4.2201,4.2288,4.2296,4.2516,4.2518,4.2542,4.2559,4.2616,0,0,0,4.1774,4.1871,4.1848,4.1963,4.1946,4.2097,4.2104,4.2217,4.2295,4.2292,4.2517,4.2519,4.2541,4.2557,4.2613,4.2658,4.2676,0,0,4.1885,4.1884,4.1953,4.1937,4.2087,4.2071,4.2224,4.2314,4.2341,4.2458,4.2464,4.2546,4.2559,4.2615,4.2788,4.2802,0,0,0,4.1981,4.203,4.2074,4.2148,4.222,4.2282,4.2352,4.2385,4.2485,4.2398,4.2584,4.2592,4.2626,4.2648,4.266,4.2689,4.2529,4.2529,4.2529,4.2105,4.2135,4.225,4.2301,4.2372,4.2442,4.2501,4.2557,4.2566,4.2609,4.2643,4.2745,4.277,4.278,4.2809,4.2672,4.2672,4.2672,4.2673,4.2267,4.2339,4.235,4.2464,4.2494,4.259,4.266,4.2663,4.2755,4.2722,4.2753,4.2712,4.2794,4.2821,4.2675,4.2675,4.2674,4.2674,4.2674,4.2349,4.2389,4.2429,4.2537,4.2616,4.2664,4.2751,4.2775,4.2799,4.283,4.2866,4.2866,4.2865,4.2846,4.2847,4.2847,4.2847,4.2847,4.2848,4.2417,4.2462,4.2533,4.2617,4.2666,4.2734,4.2805,4.2853,4.2912,4.2923,4.2923,4.2925,4.2798,4.2764,4.2853,4.2852,4.2851,4.2851,4.2851,4.2565,4.2536,4.2646,4.2695,4.2794,4.2869,4.2901,4.2996,4.304,4.3081,4.3077,4.2981,4.298,4.2971,4.2942,4.3073,4.3073,4.3073,4.3073,4.2632,4.2636,4.2753,4.2829,4.2907,4.2946,4.3065,4.312,4.3172,4.32,4.3185,4.3151,4.314,4.3146,4.3133,4.3106,4.3276,4.3276,4.3276,4.2723,4.2735,4.2833,4.2885,4.2964,4.303,4.3142,4.3227,4.328,4.3285,4.3221,4.3213,4.3157,4.3138,4.3138,4.3118,4.307,0,0]}]]